Regional Weather Roundup
Issued by NWS

Home | Current Version | Previous Version | Graphics & Text | Print | Product List | Glossary On
Versions: 1 2 3 4 5 6 7 8 9 10 11 12 13 14 15 16 17 18 19 20 21 22 23 24 25 26 27 28 29 30 31 32 33 34 35 36 37 38 39 40 41 42 43 44 45 46 47 48 49 50
000
ASUS44 KMEG 241800
RWRTN
TENNESSEE HOURLY STATE WEATHER ROUNDUP
NATIONAL WEATHER SERVICE MEMPHIS TN
100 PM CDT MON APR 24 2017

TNZ002-004-019-021-049-052-054-088>092-241900-
WEST TENNESSEE

CITY           SKY/WX    TMP DP  RH WIND       PRES   REMARKS
MEMPHIS INTL   MOSUNNY   70  51  51 N6        29.89F
NWS MEMPHIS      N/A     67 N/A N/A MISG        N/A
JACKSON        PTSUNNY   65  55  70 NW9       29.88F
DYERSBURG      MOSUNNY   70  52  52 N9        29.88F
PARIS          PTSUNNY   66  52  59 N7        29.87F
$$

TNZ008-025-027-028-033-062-065-066-241900-
NORTH MIDDLE TENNESSEE

CITY           SKY/WX    TMP DP  RH WIND       PRES   REMARKS
NASHVILLE      CLOUDY    65  54  67 NW3       29.84F
CLARKSVILLE    PTSUNNY   67  52  58 N8        29.85F
SMYRNA         CLOUDY    62  55  77 NW6       29.85F
CROSSVILLE     CLOUDY    60  53  77 W3        29.82S
$$

TNZ061-075-076-078-094-096-097-241900-
SOUTH MIDDLE TENNESSEE

CITY           SKY/WX    TMP DP  RH WIND       PRES   REMARKS
TULLAHOMA      CLOUDY    57  54  88 N8        29.84S
WINCHESTER     CLOUDY    57  55  94 VRB3      29.83F
COLUMBIA       CLOUDY    61  61 100 VRB5      29.84F
SHELBYVILLE    CLOUDY    61  55  82 NW6       29.85S
$$

TNZ017-018-042-046-047-241900-
NORTHEAST TENNESSEE

CITY           SKY/WX    TMP DP  RH WIND       PRES   REMARKS
TRI CITIES     CLOUDY    62  52  69 NE6       29.82F
$$

TNZ012-013-036-069-073-074-241900-
CENTRAL EAST TENNESSEE

CITY           SKY/WX    TMP DP  RH WIND       PRES   REMARKS
KNOXVILLE      PTSUNNY   66  53  63 NE10      29.78F
OAK RIDGE      PTSUNNY   69  52  54 VRB7      29.80F
GATLINBURG     CLOUDY    64  52  63 VRB5      29.79S
$$

TNZ083-085-099-241900-
SOUTHEAST TENNESSEE

CITY           SKY/WX    TMP DP  RH WIND       PRES   REMARKS
CHATTANOOGA    PTSUNNY   67  55  65 N7        29.78F
$$

SKY/WX REPORTED AS FAIR MEANS FEW OR NO CLOUDS BELOW
12 THOUSAND FEET.





USA.gov is the U.S. government's official web portal to all federal, state and local government web resources and services.